McAllen, TX

7:59 PM CST on November 18, 2017 (GMT -0600)
McAllen Miller International

Weather History for KMFE - April, 2013

Change the Weather History Date:

Tuesday, April 9, 2013

  Actual Average Record
Temperature  
Mean Temperature 85 °F 76 °F  
Max Temperature 96 °F 86 °F 106 °F (1989)
Min Temperature 74 °F 65 °F 42 °F (1973)
Degree Days  
Heating Degree Days 0 0  
Month to date heating degree days 0 3  
Since 1 July heating degree days 312 574  
Cooling Degree Days 20 11  
Month to date cooling degree days 102 93  
Year to date cooling degree days 570 470  
Growing Degree Days 34 (Base 50)    
Moisture  
Dew Point 70 °F    
Average Humidity 65    
Maximum Humidity 87    
Minimum Humidity 42    
Precipitation  
Precipitation 0.00 in 0.03 in 0.25 in (1988)
Month to date precipitation T 0.27  
Year to date precipitation 0.99 3.46  
Sea Level Pressure  
Sea Level Pressure 29.62 in    
Wind  
Wind Speed 19 mph (SSE)    
Max Wind Speed 30 mph    
Max Gust Speed 39 mph    
Visibility 9 miles    
Events      
T = Trace of Precipitation, MM = Missing Value Source: NWS Daily Summary

Daily Weather History Graph

Daily Weather History Graph

Search for Another Location

Airport or City:

Trip Planner

Search our weather history database for the weather conditions in past years. The results will help you decide how hot, cold, wet, or windy it might be!

Date:

Astronomy

Apr. 09, 2013 Rise Set
Actual Time 7:15 AM CDT 7:53 PM CDT
Civil Twilight 6:51 AM CDT 8:17 PM CDT
Nautical Twilight 6:24 AM CDT 8:44 PM CDT
Astronomical Twilight 5:56 AM CDT 9:12 PM CDT
Moon 6:36 AM CDT (4/9) 7:30 PM CDT (4/9)
Length of Visible Light 13h 25m
Length of Day
12h 38m
Waning Crescent, 1% of the Moon is Illuminated
Apr 9
Waning Crescent
Apr 10
New
Apr 18
First Quarter
Apr 25
Full
May 2
Last Quarter

Hourly Weather History & Observations

Time (CDT) Temp. Heat Index Dew Point Humidity Pressure Visibility Wind Dir Wind Speed Gust Speed Precip Events Conditions
12:53 AM 75.9 °F - 69.1 °F 79% 29.66 in 10.0 mi SSE 21.9 mph 34.5 mph N/A   Overcast
1:53 AM 75.9 °F - 70.0 °F 82% 29.66 in 10.0 mi SSE 21.9 mph 29.9 mph N/A   Overcast
2:15 AM 75.2 °F - 69.8 °F 83% 29.66 in 10.0 mi SE 24.2 mph 31.1 mph N/A   Overcast
2:53 AM 75.0 °F - 69.1 °F 82% 29.65 in 10.0 mi SSE 20.7 mph 31.1 mph N/A   Overcast
3:03 AM 75.2 °F - 69.8 °F 83% 29.65 in 10.0 mi SSE 19.6 mph 33.4 mph N/A   Overcast
3:10 AM 75.2 °F - 69.8 °F 83% 29.65 in 10.0 mi SSE 18.4 mph 32.2 mph N/A   Overcast
3:40 AM 75.2 °F - 69.8 °F 83% 29.63 in 9.0 mi SE 23.0 mph 33.4 mph N/A   Overcast
3:53 AM 75.0 °F - 69.1 °F 82% 29.62 in 9.0 mi SE 21.9 mph 29.9 mph N/A   Overcast
4:32 AM 73.4 °F - 69.8 °F 88% 29.60 in 8.0 mi SE 20.7 mph 28.8 mph N/A   Overcast
4:53 AM 73.9 °F - 70.0 °F 87% 29.60 in 8.0 mi SE 19.6 mph 27.6 mph N/A   Overcast
5:49 AM 73.4 °F - 69.8 °F 88% 29.61 in 8.0 mi SSE 19.6 mph 29.9 mph N/A   Scattered Clouds
5:53 AM 73.9 °F - 70.0 °F 87% 29.60 in 8.0 mi SSE 20.7 mph 28.8 mph N/A   Partly Cloudy
6:53 AM 73.9 °F - 70.0 °F 87% 29.62 in 8.0 mi SSE 15.0 mph 23.0 mph N/A   Clear
7:45 AM 73.4 °F - 69.8 °F 88% 29.66 in 6.0 mi South 9.2 mph - N/A   Mostly Cloudy
7:53 AM 73.9 °F - 70.0 °F 87% 29.66 in 6.0 mi South 4.6 mph - N/A   Mostly Cloudy
8:53 AM 75.9 °F - 70.0 °F 82% 29.68 in 7.0 mi South 8.1 mph - N/A   Overcast
9:53 AM 79.0 °F - 70.0 °F 74% 29.68 in 8.0 mi SSE 16.1 mph 21.9 mph N/A   Overcast
10:53 AM 84.0 °F 88.4 °F 70.0 °F 63% 29.68 in 10.0 mi SSE 18.4 mph 25.3 mph N/A   Mostly Cloudy
11:09 AM 84.2 °F 88.4 °F 69.8 °F 62% 29.68 in 10.0 mi SSE 21.9 mph 26.5 mph N/A   Scattered Clouds
11:53 AM 87.1 °F 92.0 °F 70.0 °F 57% 29.66 in 10.0 mi SSE 18.4 mph - N/A   Clear
12:53 PM 91.0 °F 96.6 °F 70.0 °F 50% 29.63 in 10.0 mi SSE 17.3 mph 28.8 mph N/A   Clear
1:53 PM 93.9 °F 100.3 °F 70.0 °F 46% 29.60 in 10.0 mi SE 16.1 mph 23.0 mph N/A   Clear
2:53 PM 96.1 °F 102.9 °F 70.0 °F 43% 29.57 in 10.0 mi SE 19.6 mph 26.5 mph N/A   Clear
3:53 PM 93.9 °F 100.3 °F 70.0 °F 46% 29.55 in 10.0 mi SE 19.6 mph 28.8 mph N/A   Clear
4:53 PM 93.0 °F 99.0 °F 70.0 °F 47% 29.53 in 10.0 mi SE 21.9 mph 28.8 mph N/A   Clear
5:53 PM 88.0 °F 92.9 °F 70.0 °F 55% 29.53 in 10.0 mi SE 26.5 mph 32.2 mph N/A   Clear
6:53 PM 84.9 °F 90.1 °F 71.1 °F 63% 29.54 in 10.0 mi SE 23.0 mph 28.8 mph N/A   Clear
7:53 PM 81.0 °F 84.9 °F 71.1 °F 72% 29.55 in 10.0 mi SE 19.6 mph - N/A   Clear
8:36 PM 78.8 °F - 71.6 °F 78% 29.58 in 10.0 mi SE 25.3 mph 31.1 mph N/A   Mostly Cloudy
8:53 PM 79.0 °F - 71.1 °F 77% 29.58 in 10.0 mi SSE 25.3 mph 32.2 mph N/A   Overcast
9:53 PM 79.0 °F - 71.1 °F 77% 29.61 in 9.0 mi SE 21.9 mph 27.6 mph N/A   Overcast
10:53 PM 78.1 °F - 71.1 °F 79% 29.62 in 9.0 mi SE 23.0 mph 31.1 mph N/A   Overcast
11:53 PM 78.1 °F - 71.1 °F 79% 29.63 in 9.0 mi SSE 20.7 mph 29.9 mph N/A   Overcast